For there shall arise false Christs, and false prophets, and shall shew great signs and wonders; insomuch that, if it were possible, they shall deceive the very elect.
Matthew 24:24 KJ
pause

Enter Zip Code:

Current conditions for: Simi Valley, CA, US - Location: 34.26  -118.75 on Tue, 20 Mar 2007 9:51 pm PDT:
cloud or sun
cloud or sun
cloud or sun

Currently:
Cloudy
Visibility: 1,609.0 miles
Temp: 53° F     Humidity: 86%
Wind: Calm
Feels like: 53 ° F
Pressure: 30.01 in and rising
Sunrise: 6:59 am  Sunset: 7:06 pm
Forecast for Tue:
Showers Early
64° F / 47° F
Forecast for Wed:
Partly Cloudy
67° F / 47° F



Data courtesy of Yahoo! Weather

Enter 4 Letter Airport ID:

Current Observation for KDFW :

2018/04/24 16:53
KDFW 241653Z 09005KT 10SM CLR 24/10 A3010 RMK AO2 SLP186 T02440100

Forecast for KDFW :

2018/04/24 21:51
KDFW 232050Z 2321/2424 33011KT P6SM SCT045 
      TEMPO 2321/2323 BKN045 
     FM240200 36006KT P6SM FEW250 
     FM241700 05006KT P6SM FEW250
GOES Pacific Coast Color Satellite View
GOES Pacific Coast Color Satellite View
GOES Hurricane Color Satellite View
GOES Hurricane Color Satellite View
  Movies and Other Links
(May take a while to load)
East Coast Movie
West Coast Movie
GOES East Full Disk
GOES West Full Disk
S Plains Radar View
Southern Plains Radar View
N Texas Radar View
Dallas Ft Worth Area View
Southern Rockies Radar View
North Texas - Oklahoma Radar View
CONUS Visible
CONUS Visible
CONUS IR
CONUS IR
CONUS Water Vapor
CONUS Water Vapor